Regional Weather Roundup
Issued by NWS

Home | Current Version | Previous Version | Graphics & Text | Print | Product List | Glossary On
Versions: 1 2 3 4 5 6 7 8 9 10 11 12 13 14 15 16 17 18 19 20 21 22 23 24 25 26 27 28 29 30 31 32 33 34 35 36 37 38 39 40 41 42 43 44 45 46 47 48 49 50
000
ASUS43 KMKX 210320
RWRWI

WISCONSIN REGIONAL WEATHER ROUNDUP
NATIONAL WEATHER SERVICE MILWAUKEE/SULLIVAN WI
1000 PM CDT SUN MAY 20 2018

NOTE: "FAIR" INDICATES FEW OR NO CLOUDS BELOW 12,000 FEET WITH NO
SIGNIFICANT WEATHER AND/OR OBSTRUCTIONS TO VISIBILITY.

WIZ001-002-006>008-014>016-023>028-210400-
NORTHWEST WISCONSIN

CITY           SKY/WX    TMP DP  RH WIND       PRES   REMARKS
SUPERIOR ARPT  FAIR      45  35  68 CALM      30.17R
ASHLAND        FAIR      46  39  76 CALM      30.18R
HAYWARD        FAIR      50  36  58 CALM      30.18R
SIREN          FAIR      51  35  54 CALM      30.17R
CUMBERLAND     FAIR      52  32  46 CALM      30.16S
RICE LAKE      FAIR      53  34  48 CALM      30.18R
CHETEK         FAIR      51  36  55 CALM      30.17R
LADYSMITH      FAIR      48  37  65 CALM      30.19R
EAU CLAIRE     FAIR      56  35  45 CALM      30.15R
MENOMONIE      FAIR      59  32  36 E3        30.16R
NEW RICHMOND   FAIR      57  33  40 E3        30.16S
OSCEOLA        FAIR      51  37  57 CALM      30.18S
$$

WIZ003>005-009-010-017-018-210400-
NORTH CENTRAL WISCONSIN

CITY           SKY/WX    TMP DP  RH WIND       PRES   REMARKS
MANITOWISH WTR FAIR      47  35  63 CALM      30.19R
ARBOR VITAE    FAIR      52  37  54 CALM      30.19R
WOODRUFF       FAIR      52  37  54 CALM      30.19R
RHINELANDER    FAIR      49  35  58 CALM      30.19R
EAGLE RIVER    FAIR      46  33  61 CALM      30.19R
LAND O LAKES   FAIR      46  39  78 CALM      30.22R
PHILLIPS       FAIR      45  34  65 CALM      30.17S
TOMAHAWK       FAIR      43  35  73 CALM      30.19S
MEDFORD        FAIR      53  32  45 SE3       30.18R
MERRILL        FAIR      48  36  62 S3        30.20R
$$

WIZ029-030-035-036-043>047-210400-
CENTRAL WISCONSIN

CITY           SKY/WX    TMP DP  RH WIND       PRES   REMARKS
WAUSAU         FAIR      56  35  45 SE6       30.18R
MOSINEE        CLEAR     54  36  50 SE6       30.20R
MARSHFIELD     FAIR      56  35  45 CALM      30.17R
STEVENS POINT  NOT AVBL
WAUPACA        FAIR      50  34  54 CALM      30.21R
WAUTOMA        FAIR      50  40  68 CALM      30.20R
WISC RAPIDS    FAIR      55  33  43 SE5       30.19R
CAMP DOUGLAS   FAIR      50  50  99 CALM      30.18R
$$

WIZ011>013-019>022-031-037>040-048>050-210400-
NORTHEAST WISCONSIN

CITY           SKY/WX    TMP DP  RH WIND       PRES   REMARKS
ANTIGO         FAIR      49  34  56 SE9       30.21R
SHAWANO        FAIR      48  33  55 CALM      30.20S
OCONTO         FAIR      43  38  80 CALM      30.20R
STURGEON BAY   FAIR      49  27  42 E5        30.21R
GREEN BAY      FAIR      51  28  41 NE3       30.19S
MANITOWOC      FAIR      43  34  70 CALM      30.21R
APPLETON       PTCLDY    52  30  43 E5        30.19R
CLINTONVILLE   FAIR      50  33  51 CALM      30.21R
OSHKOSH        FAIR      55  33  43 CALM      30.19R
$$

WIZ032>034-041-042-053>061-210400-
SOUTHWEST WISCONSIN

CITY           SKY/WX    TMP DP  RH WIND       PRES   REMARKS
LA CROSSE      FAIR      57  52  83 SE3       30.16R
SPARTA         FAIR      51  49  92 CALM      30.18S
VIROQUA        FAIR      52  51  97 E5        30.17S
BOSCOBEL       FAIR      55  52  89 CALM      30.17R
PRAIRIE DU CHI CLOUDY    57  51  81 CALM      30.16R
PLATTEVILLE    CLOUDY    56  55  97 E10       30.17S
$$

WIZ056-057-062-063-064-067-068-210400-
SOUTH CENTRAL WISCONSIN

CITY           SKY/WX    TMP DP  RH WIND       PRES   REMARKS
REEDSBURG      FAIR      53  47  82 CALM      30.19R
BARABOO/DELLS  FAIR      52  46  79 E3        30.18R
LONE ROCK      CLOUDY    55  54  96 CALM      30.18R
MINERAL POINT  MOCLDY    55  55 100 E8        30.18R
MADISON        MOCLDY    55  49  80 SE9       30.19R
MIDDLETON      FAIR      56  51  84 SE8       30.20R
WATERTOWN      FAIR      48  48  99 CALM      30.22R
MONROE         CLOUDY    54  46  76 E7        30.19R
JANESVILLE     CLOUDY    54  43  66 E6        30.20S
$$

WIZ051-052-058>065-066-070>072-210400-
SOUTHEAST WISCONSIN

CITY           SKY/WX    TMP DP  RH WIND       PRES   REMARKS
MILWAUKEE      MOCLDY    46  39  76 CALM      30.21R
WAUKESHA       FAIR      45  34  65 CALM      30.22R
MILWAUKEE/TIMM FAIR      43  34  70 CALM      30.23R
RACINE         FAIR      44  40  85 CALM      30.23R
BURLINGTON     FAIR      47  40  77 CALM      30.22R
KENOSHA        FAIR      46  39  76 NE3       30.21R
FOND DU LAC    FAIR      50  36  58 CALM      30.20R
SHEBOYGAN      FAIR      42  35  76 NE3       30.19S
WEST BEND      FAIR      43  37  81 CALM      30.22R
JUNEAU         FAIR      50  32  49 CALM      30.22R
$$

LSZ147-162-210400-
LAKE SUPERIOR

STATION/POSITION TIME  TEMP    WIND        PRES    WAVE
                       AIR SEA DIR/SP/G            HT/PER
                 (UTC) (F)     (DEG/KT/KT) (MB)    (FT/S)
W MID LAKE BUOY  0250   40 36  320/  4/  4 1022.5R   0
DEVILS ISLAND    0300   52      CALM  /  1 1022.0R
SAXON HARBOR     0230   49     190/  2/  3 1021.0S
$$

LMZ867-665-643>646-210400-
LAKE MICHIGAN

STATION/POSITION TIME  TEMP    WIND        PRES    WAVE
                       AIR SEA DIR/SP/G            HT/PER
                 (UTC) (F)     (DEG/KT/KT) (MB)    (FT/S)
NORTHPORT PIER   0240   48                 1022.7R
KEWAUNEE LAKESHO 0254   50      20/  5/  8 1021.5F
SHEBOYGAN LAKESH 0300   48      10/  7/  9 1022.8R
PORT WASHINGTON  0230   47     260/  2/  3 1023.4R
MILWAUKEE LAKESH 0300   45     330/  3/  4   N/A
KENOSHA   LAKESH 0300   46                 1023.4
$$

TC  - TEMPERATURE IN CELSIUS
VSB - VISIBILITY IN STATUTE MILES
WCI - WIND CHILL INDEX
HX  - HEAT INDEX





USA.gov is the U.S. government's official web portal to all federal, state and local government web resources and services.